Regional Weather Roundup
Issued by NWS

Home | Current Version | Previous Version | Graphics & Text | Print | Product List | Glossary On
Versions: 1 2 3 4 5 6 7 8 9 10 11 12 13 14 15 16 17 18 19 20 21 22 23 24 25 26 27 28 29 30 31 32 33 34 35 36 37 38 39 40 41 42 43 44 45 46 47 48 49 50
000
ASUS43 KMKX 062011
RWRWI

WISCONSIN REGIONAL WEATHER ROUNDUP
NATIONAL WEATHER SERVICE MILWAUKEE/SULLIVAN WI
200 PM CST SAT FEB 06 2016

NOTE: "FAIR" INDICATES FEW OR NO CLOUDS BELOW 12,000 FEET WITH NO
SIGNIFICANT WEATHER AND/OR OBSTRUCTIONS TO VISIBILITY.

WIZ001-002-006>008-014>016-023>028-062100-
NORTHWEST WISCONSIN

CITY           SKY/WX    TMP DP  RH WIND       PRES   REMARKS
SUPERIOR ARPT  CLOUDY    35  25  65 SW14      29.88F WCI  26
ASHLAND        CLOUDY    34  22  61 S13G21    29.91F WCI  25
HAYWARD        MOSUNNY   32  22  66 S14       29.93F WCI  22
SIREN          CLOUDY    34  24  67 S10G17    29.93F WCI  26
CUMBERLAND     CLOUDY    32  23  69 S16       29.95F WCI  21
RICE LAKE      CLOUDY    32  24  71 S14       29.99F WCI  22
CHETEK         CLOUDY    31  23  72 S10       29.99F WCI  22
LADYSMITH      MOSUNNY   33  23  67 S9        30.00F WCI  25
EAU CLAIRE     SUNNY     33  22  63 SW12      30.01F WCI  24
MENOMONIE      MOSUNNY   36  25  63 S9        30.01F WCI  29
NEW RICHMOND   MOSUNNY   33  25  72 S15       29.98F WCI  22
OSCEOLA        CLOUDY    34  26  72 S14G20    29.99F WCI  25
$$

WIZ003>005-009-010-017-018-062100-
NORTH CENTRAL WISCONSIN

CITY           SKY/WX    TMP DP  RH WIND       PRES   REMARKS
MANITOWISH WTR CLOUDY    28  20  71 SW9       29.94F WCI  20
ARBOR VITAE    CLOUDY    32  23  70 S8        29.95F WCI  25
WOODRUFF       CLOUDY    32  23  70 S8        29.95F WCI  25
RHINELANDER    CLOUDY    28  20  71 SW10      29.98F WCI  19
EAGLE RIVER    CLOUDY    28  18  66 SW8       29.95F WCI  20
LAND O LAKES   CLOUDY    29  20  67 SW5       29.95F WCI  24
PHILLIPS       CLOUDY    31  22  68 S8        29.96F WCI  23
TOMAHAWK       CLOUDY    30  20  67 SW3       29.99F
MEDFORD        CLOUDY    29  22  75 S12       30.00F WCI  20
MERRILL        CLOUDY    30  22  73 SW8       30.02F WCI  22
$$

WIZ029-030-035-036-043>047-062100-
CENTRAL WISCONSIN

CITY           SKY/WX    TMP DP  RH WIND       PRES   REMARKS
WAUSAU         CLOUDY    31  22  69 SW9       30.02F WCI  23
MOSINEE        PTSUNNY   30  25  80 SW9       30.05F WCI  22
MARSHFIELD     MOSUNNY   32  21  64 SW9       30.03F WCI  24
STEVENS POINT  CLOUDY    30  22  73 SW6       30.06F WCI  24
WAUPACA        CLOUDY    33  25  71 SW7       30.09F WCI  27
WAUTOMA        CLOUDY    34  25  70 SW10      30.10F WCI  26
WISC RAPIDS    CLOUDY    32  22  66 SW10      30.08F WCI  24
CAMP DOUGLAS   PTSUNNY   36  28  75 SW12      30.08F WCI  27
$$

WIZ011>013-019>022-031-037>040-048>050-062100-
NORTHEAST WISCONSIN

CITY           SKY/WX    TMP DP  RH WIND       PRES   REMARKS
ANTIGO         CLOUDY    27  22  80 SW9       30.01F WCI  18
SHAWANO        CLOUDY    32  24  72 SW8       30.07F WCI  25
OCONTO         CLOUDY    30  23  76 SW8       30.07F WCI  22
STURGEON BAY   CLOUDY    28  21  74 W12       30.09F WCI  18
GREEN BAY      CLOUDY    30  24  78 W13       30.09F WCI  20
MANITOWOC      CLOUDY    32  24  72 W13       30.11F WCI  22
APPLETON       CLOUDY    30  23  74 SW9       30.08F WCI  22
CLINTONVILLE   CLOUDY    32  23  69 SW8       30.08F WCI  25
OSHKOSH        CLOUDY    31  24  75 SW8       30.10F WCI  23
$$

WIZ032>034-041-042-053>061-062100-
SOUTHWEST WISCONSIN

CITY           SKY/WX    TMP DP  RH WIND       PRES   REMARKS
LA CROSSE      SUNNY     32  24  72 SW14      30.10F WCI  22
SPARTA         SUNNY     35  24  65 SW7       30.10F WCI  29
VIROQUA        SUNNY     32  25  74 SW10      30.09F WCI  24
BOSCOBEL       SUNNY     35  26  69 SW7       30.14F WCI  29
PRAIRIE DU CHI PTSUNNY   33  24  70 SW8       30.14F WCI  26
PLATTEVILLE    CLOUDY    32  29  89 W10       30.14F WCI  23
$$

WIZ056-057-062-063-064-067-068-062100-
SOUTH CENTRAL WISCONSIN

CITY           SKY/WX    TMP DP  RH WIND       PRES   REMARKS
REEDSBURG      CLOUDY    32  26  77 SW8       30.10F WCI  25
BARABOO/DELLS  CLOUDY    32  24  72 SW10      30.10F WCI  24
LONE ROCK      MOSUNNY   33  25  72 SW5       30.14F WCI  29
MINERAL POINT  CLOUDY    32  30  93 SW12      30.12F WCI  23
MADISON        PTSUNNY   31  25  78 VRB6      30.12F WCI  25
MIDDLETON      CLOUDY    34  27  76 SW10G17   30.12F WCI  26
WATERTOWN      CLOUDY    32  27  81 SW12      30.12F WCI  23
MONROE         CLOUDY    32  28  86 SW13      30.12F WCI  22
JANESVILLE     CLOUDY    36  28  75 W7        30.15F WCI  30
$$

WIZ051-052-058>065-066-070>072-062100-
SOUTHEAST WISCONSIN

CITY           SKY/WX    TMP DP  RH WIND       PRES   REMARKS
MILWAUKEE      CLOUDY    33  25  72 SW14      30.14F WCI  23
WAUKESHA       CLOUDY    30  25  80 SW16      30.14F FOG     WCI  19
MILWAUKEE/TIMM CLOUDY    32  25  74 SW15      30.14F WCI  22
RACINE         CLOUDY    33  26  75 W13G18    30.16F WCI  24
BURLINGTON     CLOUDY    31  26  81 W10G20    30.14F WCI  22
KENOSHA        CLOUDY    34  27  75 W10       30.15F WCI  26
FOND DU LAC    CLOUDY    32  24  72 SW13      30.11F WCI  22
SHEBOYGAN      CLOUDY    31  24  75 W13       30.11F WCI  21
WEST BEND      CLOUDY    32  25  74 SW12      30.10F WCI  23
JUNEAU         CLOUDY    31  25  79 SW13      30.13S WCI  21
$$

LSZ147-162-062100-
LAKE SUPERIOR

STATION/POSITION TIME  TEMP    WIND        PRES    WAVE
                       AIR SEA DIR/SP/G            HT/PER
                 (UTC) (F)     (DEG/KT/KT) (MB)    (FT/S)
DEVILS ISLAND    2000   31     180/  6/ 10 1013.5F
SAXON HARBOR     1940   35                 1013.2F
$$

LMZ867-665-643>646-062100-
LAKE MICHIGAN

STATION/POSITION TIME  TEMP    WIND        PRES    WAVE
                       AIR SEA DIR/SP/G            HT/PER
                 (UTC) (F)     (DEG/KT/KT) (MB)    (FT/S)
CHAMBERS ISLAND  1900   28     220/  7/ 12 1018.3F
ALGOMA LAKESHORE 1941          260/ 10/ 13   N/A
KEWAUNEE LAKESHO 1900   29     260/ 10/ 18 1018.7F
SHEBOYGAN LAKESH 2000   31     250/ 11/ 14 1020.8F
PORT WASHINGTON  1900   33     250/  8/ 16 1021.3
MILWAUKEE LAKESH 1910   33     260/ 12/ 17   N/A
KENOSHA   LAKESH 2000   34     260/ 15/ 19 1021.0F
$$

TC  - TEMPERATURE IN CELSIUS
VSB - VISIBILITY IN STATUTE MILES
WCI - WIND CHILL INDEX
HX  - HEAT INDEX




USA.gov is the U.S. government's official web portal to all federal, state and local government web resources and services.